Phoenix, AZ

8:23 PM MST on February 09, 2016 (GMT -0700)
Phoenix-Deer Valley Municipal

Weather History for KDVT - February, 2013

Change the Weather History Date:

Friday, February 22, 2013

  Actual Average Record
Temperature  
Mean Temperature 48 °F -  
Max Temperature 59 °F 64 °F 79 °F (2002)
Min Temperature 37 °F 45 °F 37 °F (2006)
Degree Days  
Heating Degree Days 17    
Moisture  
Dew Point 29 °F    
Average Humidity 54    
Maximum Humidity 89    
Minimum Humidity 24    
Precipitation  
Precipitation 0.00 in - - ()
Sea Level Pressure  
Sea Level Pressure 30.06 in    
Wind  
Wind Speed 3 mph (WNW)    
Max Wind Speed 12 mph    
Max Gust Speed -    
Visibility 10 miles    
Events      
Averages and records for this station are not official NWS values.
T = Trace of Precipitation, MM = Missing Value Source: NWS Daily Summary

Daily Weather History Graph

Daily Weather History Graph

Search for Another Location

Airport or City:

Trip Planner

Search our weather history database for the weather conditions in past years. The results will help you decide how hot, cold, wet, or windy it might be!

Date:

Astronomy

Feb. 22, 2013 Rise Set
Actual Time 7:04 AM MST 6:19 PM MST
Civil Twilight 6:39 AM MST 6:44 PM MST
Nautical Twilight 6:10 AM MST 7:13 PM MST
Astronomical Twilight 5:41 AM MST 7:42 PM MST
Moon 3:39 PM MST (2/22) 4:46 AM MST (2/22)
Length of Visible Light 12h 05m
Length of Day
11h 14m
Waxing Gibbous, 90% of the Moon is Illuminated
Feb 22
Waxing Gibbous
Feb 25
Full
Mar 4
Last Quarter
Mar 11
New
Mar 19
First Quarter

Hourly Weather History & Observations

Time (MST) Temp. Windchill Dew Point Humidity Pressure Visibility Wind Dir Wind Speed Gust Speed Precip Events Conditions
12:53 AM 41.0 °F - 37.0 °F 86% 30.00 in 10.0 mi Calm Calm - N/A   Clear
1:53 AM 42.1 °F 39.2 °F 36.0 °F 79% 30.00 in 10.0 mi NNE 4.6 mph - N/A   Clear
2:53 AM 39.9 °F - 36.0 °F 86% 30.01 in 10.0 mi Calm Calm - N/A   Clear
3:53 AM 39.0 °F - 36.0 °F 89% 30.00 in 10.0 mi Calm Calm - N/A   Clear
4:53 AM 37.9 °F 35.5 °F 35.1 °F 89% 30.02 in 10.0 mi NNW 3.5 mph - N/A   Clear
5:53 AM 37.9 °F - 34.0 °F 86% 30.04 in 10.0 mi Calm Calm - N/A   Clear
6:53 AM 37.0 °F - 33.1 °F 86% 30.05 in 10.0 mi Calm Calm - N/A   Clear
7:53 AM 41.0 °F 37.1 °F 33.1 °F 73% 30.09 in 10.0 mi NNE 5.8 mph - N/A   Clear
8:53 AM 44.1 °F - 36.0 °F 73% 30.10 in 10.0 mi Calm Calm - N/A   Clear
9:53 AM 48.0 °F - 35.1 °F 61% 30.10 in 10.0 mi Calm Calm - N/A   Clear
11:53 AM 54.0 °F - 27.0 °F 35% 30.11 in 10.0 mi WNW 4.6 mph - N/A   Clear
12:53 PM 54.0 °F - 21.9 °F 29% 30.09 in 10.0 mi Variable 6.9 mph - N/A   Clear
1:53 PM 55.0 °F - 21.0 °F 27% 30.07 in 10.0 mi Calm Calm - N/A   Clear
2:53 PM 57.0 °F - 21.9 °F 26% 30.06 in 10.0 mi Variable 4.6 mph - N/A   Clear
3:53 PM 59.0 °F - 23.0 °F 25% 30.03 in 10.0 mi WSW 11.5 mph - N/A   Clear
4:53 PM 57.9 °F - 21.0 °F 24% 30.03 in 10.0 mi SW 6.9 mph - N/A   Clear
5:53 PM 57.0 °F - 21.0 °F 25% 30.05 in 10.0 mi WSW 4.6 mph - N/A   Clear
6:53 PM 55.0 °F - 23.0 °F 29% 30.07 in 10.0 mi WNW 3.5 mph - N/A   Clear
7:53 PM 53.1 °F - 25.0 °F 34% 30.08 in 10.0 mi SW 3.5 mph - N/A   Clear
8:53 PM 51.1 °F - 28.0 °F 41% 30.09 in 10.0 mi Calm Calm - N/A   Clear
9:53 PM 50.0 °F - 28.0 °F 43% 30.09 in 10.0 mi East 5.8 mph - N/A   Clear
10:53 PM 46.9 °F - 30.9 °F 54% 30.10 in 10.0 mi East 5.8 mph - N/A   Clear
11:53 PM 46.9 °F - 30.0 °F 52% 30.11 in 10.0 mi East 5.8 mph - N/A   Clear